Weather Roundup
Issued by NWS Springfield, MO

Home | Current Version | Previous Version | Text Only | Print | Product List | Glossary Off
Versions: 1 2 3 4 5 6 7 8 9 10 11 12 13 14 15 16 17 18 19 20 21 22 23 24 25 26 27 28 29 30 31 32 33 34 35 36 37 38 39 40 41 42 43 44 45 46 47 48 49 50

000
NZUS99 KSGF 291707
HRRSGF

HOURLY WEATHER
NATIONAL WEATHER SERVICE SPRINGFIELD MO
1200 PM CDT TUE JUL 29 2014

......SGF CWA......

CITY           SKY/WX    TMP DP  RH WIND       PRES   REMARKS
SPRINGFIELD    MOSUNNY   78  54  43 CALM      30.19F
JOPLIN         SUNNY     80  56  43 VRB6      30.19F
WEST PLAINS    MOSUNNY   76  54  46 NE8       30.19F
ROLLA          MOSUNNY   76  52  43 N7        30.16F
OSAGE BEACH    MOSUNNY   77  55  47 W7        30.18S
BRANSON        MOSUNNY   82  52  34 NW7       30.20F

......SURROUNDING SGF CWA......

CITY           SKY/WX    TMP DP  RH WIND       PRES   REMARKS
CHANUTE        PTSUNNY   77  60  55 CALM      30.20S
PARSONS        PTSUNNY   78  60  53 CALM      30.20F
COFFEYVILLE    MOSUNNY   78  59  51 NW3       30.18F
EMPORIA        PTSUNNY   73  59  61 N6        30.22R
GROVE OK       MOSUNNY   82  61  47 CALM      30.20S
ROGERS AR      MOSUNNY   80  57  45 S7        30.21S
SILOAM SPRINGS SUNNY     79  57  47 CALM      30.21S
HARRISON AR    SUNNY     77  55  46 VRB5      30.20F
NEAR YELLVILLE SUNNY     77  54  44 NE6       30.18F

......KANSAS AND MISSOURI......

CITY           SKY/WX    TMP DP  RH WIND       PRES   REMARKS
KANSAS CTY INT PTSUNNY   78  60  53 NW6       30.20R
DOWNTOWN KC    MOSUNNY   79  57  46 NW8       30.18S
COLUMBIA       MOSUNNY   78  56  46 NW9       30.18S
SEDALIA        MOSUNNY   78  58  49 W5        30.19S
ST JOSEPH      MOSUNNY   77  61  57 N7        30.20S
ST LOUIS       MOSUNNY   77  54  44 NW7       30.16S
SPIRIT OF STL  PTSUNNY   77  53  43 NW8       30.15S
KIRKSVILLE     MOSUNNY   75  54  47 NW7       30.18F
WICHITA        MOSUNNY   83  60  45 SE6       30.18F
TOPEKA         CLOUDY    80  57  45 NW3       30.20S
OLATHE         PTSUNNY   78  57  48 VRB3      30.19S

......TENNESSEE......

CITY           SKY/WX    TMP DP  RH WIND       PRES   REMARKS
MEMPHIS        MOSUNNY   79  54  41 NE10      30.14F
NASHVILLE      MOSUNNY   75  52  44 N12       30.12F

......ARKANSAS.......

CITY           SKY/WX    TMP DP  RH WIND       PRES   REMARKS
FAYETTEVILLE   SUNNY     80  59  48 NE5       30.19F
FT SMITH       SUNNY     83  62  49 VRB3      30.16F
LITTLE ROCK    MOSUNNY   80  58  46 NE10      30.16F

......OKLAHOMA.......

CITY           SKY/WX    TMP DP  RH WIND       PRES   REMARKS
TULSA          MOSUNNY   85  60  42 NW5       30.15F
PONCA CITY     SUNNY     84  60  44 VRB5      30.17F
MCALESTER      SUNNY     84  61  45 SW5       30.17F
OKLAHOMA CITY  PTSUNNY   88  59  37 S10G17    30.18S

......IOWA............

CITY           SKY/WX    TMP DP  RH WIND       PRES   REMARKS
DES MOINES     MOSUNNY   78  55  44 NW12      30.17S
QUAD CITIES    MOSUNNY   76  56  49 NW9       30.11S

......ILLINOIS........

CITY           SKY/WX    TMP DP  RH WIND       PRES   REMARKS
QUINCY         SUNNY     74  55  51 N6        30.15S
CHICAGO        MOSUNNY   77  52  41 NW13G21   30.04S




USA.gov is the U.S. government's official web portal to all federal, state and local government web resources and services.